[TLELIST] Archives

 

[TLELIST] Current TLEs

October 7th 2025 PDT

0 HST 1 20580U 90037B 25280.27715700 .00009200 00000-0 33140-3 0 9995 2 20580 28.4699 4.4343 0002070 206.5521 153.4968 15.26774759749822 0 ISS (ZARYA) 1 25544U 98067A 25279.98118315 .00009624 00000-0 17804-3 0 9995 2 25544 51.6310 112.9960 0000843 209.1938 150.9004 15.49730279532504 0 CXO 1 25867U 99040B 25277.86155192 .00001110 00000-0 00000-0 0 9993 2 25867 51.6567 125.1998 8254320 310.4210 0.5468 0.37802793 16357 ...Continue Reading

[TLELIST] Current TLEs

October 6th 2025 PDT

0 HST 1 20580U 90037B 25278.96982823 .00009271 00000-0 33425-3 0 9994 2 20580 28.4697 13.3151 0002164 191.8018 168.2526 15.26751697749625 0 ISS (ZARYA) 1 25544U 98067A 25279.01390615 .00010492 00000-0 19350-3 0 9997 2 25544 51.6321 117.7867 0000917 206.8847 153.2094 15.49710326532359 0 CXO 1 25867U 99040B 25277.86155179 .00001110 00000-0 00000+0 0 9997 2 25867 51.6567 125.1998 8254328 310.4210 0.5468 0.37802548 16353 ...Continue Reading

[TLELIST] Current TLEs

October 5th 2025 PDT

0 HST 1 20580U 90037B 25277.59711130 .00011650 00000-0 42225-3 0 9995 2 20580 28.4695 22.6401 0002263 177.3027 182.7581 15.26725068749415 0 ISS (ZARYA) 1 25544U 98067A 25278.04661632 .00011820 00000-0 21713-3 0 9991 2 25544 51.6326 122.5779 0000916 205.0277 155.0667 15.49686836532205 0 CXO 1 25867U 99040B 25277.86155179 .00001110 00000-0 00000+0 0 9997 2 25867 51.6567 125.1998 8254328 310.4210 0.5468 0.37802548 16353 ...Continue Reading

[TLELIST] Current TLEs

October 4th 2025 PDT

0 HST 1 20580U 90037B 25276.61658330 .00013215 00000-0 48028-3 0 9995 2 20580 28.4693 29.3001 0002346 167.6788 192.3864 15.26702940749269 0 ISS (ZARYA) 1 25544U 98067A 25277.01482352 .00012477 00000-0 22893-3 0 9996 2 25544 51.6322 127.6882 0000966 195.4447 164.6512 15.49660865532049 0 CXO 1 25867U 99040B 25277.86155200 .00001110 00000-0 00000-0 0 9993 2 25867 51.6567 125.1996 8254346 310.4211 0.5468 0.37802090 16354 ...Continue Reading

[TLELIST] Current TLEs

October 3rd 2025 PDT

0 HST 1 20580U 90037B 25275.63604022 .00014602 00000-0 53183-3 0 9994 2 20580 28.4692 35.9607 0002420 158.0119 202.0580 15.26677300749117 0 ISS (ZARYA) 1 25544U 98067A 25276.04750140 .00015459 00000-0 28185-3 0 9994 2 25544 51.6327 132.4783 0001027 191.3758 168.7208 15.49638709531898 0 CXO 1 25867U 99040B 25277.86155200 .00001110 00000-0 00000-0 0 9993 2 25867 51.6567 125.1996 8254346 310.4211 0.5468 0.37802090 16354 ...Continue Reading

[TLELIST] Current TLEs

October 2nd 2025 PDT

0 HST 1 20580U 90037B 25275.04770603 .00014660 00000-0 53426-3 0 9992 2 20580 28.4693 39.9574 0002467 151.9892 208.0836 15.26660942749020 0 ISS (ZARYA) 1 25544U 98067A 25275.08016394 .00015216 00000-0 27786-3 0 9990 2 25544 51.6326 137.2684 0001066 187.1210 172.9763 15.49606939531746 0 CXO 1 25867U 99040B 25277.86155199 .00001110 00000-0 00000+0 0 9999 2 25867 51.6567 125.1996 8254346 310.4211 0.5468 0.37802090 16354 ...Continue Reading

[TLELIST] Current TLEs

October 1st 2025 PDT

0 HST 1 20580U 90037B 25274.06713468 .00014070 00000-0 51294-3 0 9995 2 20580 28.4691 46.6178 0002535 142.6464 217.4307 15.26629054748879 0 ISS (ZARYA) 1 25544U 98067A 25274.11280702 .00018412 00000-0 33478-3 0 9995 2 25544 51.6324 142.0598 0001038 182.7689 177.3294 15.49574764531593 0 CXO 1 25867U 99040B 25275.21632039 .00001123 00000-0 00000-0 0 9994 2 25867 51.6047 125.3035 8256494 310.4302 0.3759 0.37799727 16342 ...Continue Reading

[TLELIST] Current TLEs

September 30th 2025 PDT

0 HST 1 20580U 90037B 25273.08654293 .00012724 00000-0 46368-3 0 9996 2 20580 28.4690 53.2777 0002577 134.1979 225.8828 15.26595143748726 0 ISS (ZARYA) 1 25544U 98067A 25273.14542721 .00018065 00000-0 32912-3 0 9995 2 25544 51.6321 146.8490 0001095 177.0023 183.0973 15.49533591531440 0 CXO 1 25867U 99040B 25275.21632039 .00001123 00000-0 00000-0 0 9994 2 25867 51.6047 125.3035 8256494 310.4302 0.3759 0.37799727 16342 ...Continue Reading

[TLELIST] Current TLEs

September 30th 2025 PDT

0 HST 1 20580U 90037B 25273.08654293 .00012724 00000-0 46368-3 0 9996 2 20580 28.4690 53.2777 0002577 134.1979 225.8828 15.26595143748726 0 ISS (ZARYA) 1 25544U 98067A 25273.14542721 .00018065 00000-0 32912-3 0 9995 2 25544 51.6321 146.8490 0001095 177.0023 183.0973 15.49533591531440 0 CXO 1 25867U 99040B 25275.21632039 .00001123 00000-0 00000-0 0 9994 2 25867 51.6047 125.3035 8256494 310.4302 0.3759 0.37799727 16342 ...Continue Reading

[TLELIST] Current TLEs

September 30th 2025 PDT

0 HST 1 20580U 90037B 25273.08654293 .00012724 00000-0 46368-3 0 9996 2 20580 28.4690 53.2777 0002577 134.1979 225.8828 15.26595143748726 0 ISS (ZARYA) 1 25544U 98067A 25273.14542721 .00018065 00000-0 32912-3 0 9995 2 25544 51.6321 146.8490 0001095 177.0023 183.0973 15.49533591531440 0 CXO 1 25867U 99040B 25275.21632039 .00001123 00000-0 00000-0 0 9994 2 25867 51.6047 125.3035 8256494 310.4302 0.3759 0.37799727 16342 ...Continue Reading
  • This mailing list is a public mailing list - anyone may join or leave, at any time.
  • This mailing list is announce-only.

International Space Station (ISS) / Hubble Space Telescope (HST) / Chandra X-Ray Observatory Orbital Data via EMAIL

Privacy Policy:

Private list